Location: L�Ave Maria
(50.7161°N, 1.5911°E)
Time: 23:58:22
(UTC+00:00)

Lacrosse 5 rocket - Pass Details

Date: 10 July 2020
Orbit: 464 x 632 km, 57.0° (Epoch: 03 August)

Event Time Altitude Azimuth Distance (km) Brightness Sun altitude
Rises 22:24:28 0° 301° (WNW) 2,750 5.8 -14.3°
Reaches altitude 10° 22:26:46 10° 303° (WNW) 1,823 4.8 -14.4°
Maximum altitude 22:30:53 73° 29° (NNE) 552 1.4 -14.6°
Enters shadow 22:33:46 17° 112° (ESE) 1,332 2.9 -14.8°
